{"data":{"norad_id":59083,"intl_designator":"2024-041K","name":"STARLINK-31252","alt_names":[],"object_type":"PAYLOAD","status":"ACTIVE","operator":null,"country":"US","launch_date":"2024-02-29","launch_site_code":"AFETR","launch_vehicle":null,"mission":null,"orbit_class":"UNKNOWN","rcs_meters":null,"size_class":null,"mass_kg":null,"dimensions":null,"purposes":["comms"],"wikipedia_slug":null,"has_3d_model":false,"image_url":null,"decayed_at":null,"tle_current":{"epoch":"2026-09-20T04:56:40.725024Z","epoch_age_seconds":181747,"freshness":"STALE","line1":"1 59083U 24041K   26263.20602691  .00000485  00000+0  27142-4 0  9997","line2":"2 59083  43.0007 208.9906 0001039 267.0634  93.0099 15.27579908145021","mean_motion":15.27579908,"eccentricity":0.0001039,"inclination_deg":43.0007,"raan_deg":208.9906,"arg_perigee_deg":267.0634,"mean_anomaly_deg":93.0099,"bstar":2.7142e-5,"rev_number":14502,"period_min":94.266754390959,"perigee_km":482.33649425676,"apogee_km":483.76224878476,"semimajor_km":6861.1863715208,"source":"CELESTRAK","updated_at":"2026-09-21T09:00:34.035230Z"}}}